sat.trackr.live / text

‹ back to catalog

STARLINK-30468

NORAD 57926 · 2023-147P

PAYLOAD ACTIVE UNKNOWN

§ Identity

Operator
Country
US
Launch date
2023-09-24
Launch site
AFETR
Launch vehicle
Mass (kg)
RCS (m²)

Purposes: comms

External: N2YO · Heavens-Above · Gunter

§ Orbital elements

Epoch: 2026-09-20T04:12:20.784384Z

Period
94.27 min
Inclination
43.0001°
Eccentricity
0.0001087
Mean motion
15.27596878 rev/d
Perigee alt
482.3 km
Apogee alt
483.7 km
Semi-major
6,861.1 km
B*
-1.7191e-4
RAAN
310.1285°
Arg perigee
279.9439°
Mean anomaly
80.1290°
Rev number
16,630

§ Raw data

STARLINK-304681 57926U 23147P   26263.17524056 -.00004992  00000+0 -17191-3 0  99922 57926  43.0001 310.1285 0001087 279.9439  80.1290 15.27596878166302

JSON: /api/v1/satellites/57926 · /tle

For live sub-satellite position, see the globe view (requires WebGL).

§ Visibility from observer

Set your observer location to see the next 7 days of passes ≥ 10°. The values pass through the URL so the page stays shareable.

No JS? Fill the form by hand. The geolocation button needs JavaScript.